TimeEDT,TemperatureF,Dew PointF,Humidity,Sea Level PressureIn,VisibilityMPH,Wind Direction,Wind SpeedMPH,Gust SpeedMPH,PrecipitationIn,Events,Conditions,WindDirDegrees,DateUTC
12:54 AM,66.9,51.1,57,30.16,10.0,ESE,6.9,-,N/A,,Clear,120,2013-05-02 04:54:00
1:54 AM,64.9,51.1,61,30.15,10.0,SE,4.6,-,N/A,,Clear,130,2013-05-02 05:54:00
2:54 AM,63.0,50.0,63,30.14,10.0,ESE,4.6,-,N/A,,Clear,120,2013-05-02 06:54:00
3:54 AM,61.0,50.0,67,30.14,10.0,ESE,4.6,-,N/A,,Clear,110,2013-05-02 07:54:00
4:54 AM,61.0,50.0,67,30.15,10.0,East,3.5,-,N/A,,Clear,100,2013-05-02 08:54:00
5:54 AM,59.0,50.0,72,30.16,10.0,ESE,5.8,-,N/A,,Clear,110,2013-05-02 09:54:00
6:54 AM,57.9,50.0,75,30.16,10.0,ESE,6.9,-,N/A,,Clear,120,2013-05-02 10:54:00
7:54 AM,60.1,51.1,72,30.18,10.0,ESE,5.8,-,N/A,,Clear,120,2013-05-02 11:54:00
8:54 AM,63.0,51.1,65,30.19,10.0,SE,6.9,-,N/A,,Clear,130,2013-05-02 12:54:00
9:54 AM,64.9,52.0,63,30.21,10.0,SE,8.1,-,N/A,,Clear,140,2013-05-02 13:54:00
10:54 AM,66.0,53.1,63,30.21,10.0,SE,9.2,-,N/A,,Clear,140,2013-05-02 14:54:00
11:54 AM,68.0,55.0,63,30.20,10.0,South,8.1,-,N/A,,Clear,180,2013-05-02 15:54:00
12:54 PM,71.1,55.9,59,30.19,10.0,South,8.1,-,N/A,,Clear,190,2013-05-02 16:54:00
1:54 PM,72.0,55.0,55,30.17,10.0,South,9.2,-,N/A,,Scattered Clouds,170,2013-05-02 17:54:00
2:54 PM,72.0,54.0,53,30.17,10.0,South,6.9,-,N/A,,Partly Cloudy,180,2013-05-02 18:54:00
3:54 PM,73.9,53.1,48,30.14,10.0,Calm,Calm,-,N/A,,Clear,0,2013-05-02 19:54:00
4:54 PM,75.0,55.0,50,30.12,10.0,Variable,4.6,20.7,N/A,,Mostly Cloudy,0,2013-05-02 20:54:00
5:54 PM,73.9,54.0,50,30.11,10.0,SSE,4.6,-,N/A,,Partly Cloudy,150,2013-05-02 21:54:00
6:54 PM,73.0,53.1,49,30.10,10.0,SE,5.8,-,N/A,,Clear,140,2013-05-02 22:54:00
7:54 PM,71.1,53.1,53,30.09,10.0,ESE,4.6,-,N/A,,Clear,110,2013-05-02 23:54:00
8:54 PM,72.0,52.0,49,30.09,10.0,Calm,Calm,-,N/A,,Clear,0,2013-05-03 00:54:00
9:54 PM,66.0,53.1,63,30.11,10.0,East,3.5,-,N/A,,Clear,80,2013-05-03 01:54:00
10:54 PM,64.9,53.1,65,30.09,10.0,ENE,3.5,-,N/A,,Clear,70,2013-05-03 02:54:00
11:54 PM,63.0,54.0,72,30.09,10.0,Calm,Calm,-,N/A,,Partly Cloudy,0,2013-05-03 03:54:00